Marianna, FL

9:18 AM CDT on July 23, 2017 (GMT -0500)
Marianna Municipal

Weather History for KMAI - February, 2012

Change the Weather History Date:

Thursday, February 16, 2012

  Actual Average Record
Temperature  
Mean Temperature 68 °F 55 °F  
Max Temperature 73 °F 66 °F 80 °F (2001)
Min Temperature 62 °F 43 °F 27 °F (2007)
Degree Days  
Heating Degree Days 0    
Month to date heating degree days  
Since 1 July heating degree days  
Cooling Degree Days 2    
Month to date cooling degree days  
Year to date cooling degree days  
Growing Degree Days 18 (Base 50)    
Moisture  
Dew Point 65 °F    
Average Humidity 96    
Maximum Humidity 100    
Minimum Humidity 78    
Precipitation  
Precipitation 0.85 in 0.16 in 1.22 in (1998)
Month to date precipitation 2.70  
Year to date precipitation 7.74  
Sea Level Pressure  
Sea Level Pressure 30.08 in    
Wind  
Wind Speed 5 mph (ESE)    
Max Wind Speed 10 mph    
Max Gust Speed -    
Visibility 8 miles    
Events Rain    
T = Trace of Precipitation, MM = Missing Value Source: NWS Daily Summary

Daily Weather History Graph

Daily Weather History Graph

Search for Another Location

Airport or City:

Trip Planner

Search our weather history database for the weather conditions in past years. The results will help you decide how hot, cold, wet, or windy it might be!

Date:

Astronomy

Feb. 16, 2012 Rise Set
Actual Time 6:21 AM CST 5:28 PM CST
Civil Twilight 5:56 AM CST 5:53 PM CST
Nautical Twilight 5:28 AM CST 6:21 PM CST
Astronomical Twilight 5:00 AM CST 6:50 PM CST
Moon 2:03 AM CST (2/16) 12:33 PM CST (2/16)
Length of Visible Light 11h 57m
Length of Day
11h 07m
Waning Crescent, 28% of the Moon is Illuminated
Feb 16
Waning Crescent
Feb 21
New
Feb 29
First Quarter
Mar 8
Full
Mar 14
Last Quarter

Hourly Weather History & Observations

Time (CST) Temp. Dew Point Humidity Pressure Visibility Wind Dir Wind Speed Gust Speed Precip Events Conditions
12:53 AM 64.9 °F 64.0 °F 97% 30.12 in 10.0 mi South 4.6 mph - N/A   Overcast
1:53 AM 64.9 °F 64.0 °F 97% 30.10 in 10.0 mi South 3.5 mph - N/A   Overcast
2:39 AM 64.4 °F 64.4 °F 100% 30.08 in 10.0 mi Calm Calm - N/A   Overcast
2:53 AM 64.9 °F 64.0 °F 97% 30.09 in 10.0 mi Calm Calm - N/A   Overcast
4:38 AM 64.4 °F 64.4 °F 100% 30.11 in 6.0 mi ESE 4.6 mph - 0.01 in Rain Light Rain
4:46 AM 64.4 °F 64.4 °F 100% 30.12 in 7.0 mi East 3.5 mph - 0.01 in Rain Light Rain
4:53 AM 64.0 °F 64.0 °F 100% 30.12 in 7.0 mi ENE 4.6 mph - 0.01 in   Overcast
5:53 AM 64.0 °F 64.0 °F 100% 30.13 in 5.0 mi East 4.6 mph - 0.02 in Rain Light Rain
6:01 AM 64.4 °F 64.4 °F 100% 30.13 in 4.0 mi East 3.5 mph - 0.01 in Rain Light Rain
6:53 AM 63.0 °F 63.0 °F 100% 30.15 in 3.0 mi ENE 3.5 mph - 0.21 in Rain Heavy Rain
7:00 AM 62.6 °F 62.6 °F 100% 30.14 in 2.5 mi ENE 8.1 mph - 0.05 in Rain Heavy Rain
7:07 AM 62.6 °F 62.6 °F 100% 30.15 in 2.5 mi NE 9.2 mph - 0.08 in Rain Heavy Rain
7:14 AM 62.6 °F 62.6 °F 100% 30.17 in 3.0 mi NNE 6.9 mph - 0.13 in Rain Rain
7:18 AM 62.6 °F 62.6 °F 100% 30.16 in 1.8 mi NE 8.1 mph - 0.22 in Rain Heavy Rain
7:49 AM 62.6 °F 62.6 °F 100% 30.15 in 3.0 mi East 8.1 mph - 0.56 in Rain Rain
7:53 AM 63.0 °F 63.0 °F 100% 30.15 in 4.0 mi East 10.4 mph - 0.56 in Rain Rain
8:15 AM 62.6 °F 62.6 °F 100% 30.12 in 4.0 mi East 9.2 mph - 0.03 in Rain Rain
8:53 AM 63.0 °F 63.0 °F 100% 30.13 in 10.0 mi SE 6.9 mph - 0.05 in   Overcast
9:53 AM 64.0 °F 64.0 °F 100% 30.13 in 10.0 mi SE 6.9 mph - N/A   Overcast
10:53 AM 66.9 °F 64.9 °F 93% 30.11 in 10.0 mi South 6.9 mph - N/A   Mostly Cloudy
11:53 AM 69.1 °F 66.0 °F 90% 30.09 in 10.0 mi South 10.4 mph - N/A   Overcast
12:48 PM 69.8 °F 66.2 °F 88% 30.07 in 10.0 mi South 8.1 mph - 0.00 in   Mostly Cloudy
12:53 PM 69.1 °F 66.0 °F 90% 30.07 in 10.0 mi South 6.9 mph - 0.00 in   Mostly Cloudy
1:34 PM 71.6 °F 66.2 °F 83% 30.05 in 10.0 mi South 6.9 mph - N/A   Mostly Cloudy
1:53 PM 72.0 °F 66.0 °F 81% 30.05 in 10.0 mi SSW 4.6 mph - N/A   Overcast
2:04 PM 73.4 °F 66.2 °F 78% 30.05 in 10.0 mi SSW 6.9 mph - N/A   Overcast
2:53 PM 73.9 °F 66.9 °F 79% 30.02 in 10.0 mi SSW 8.1 mph - N/A   Mostly Cloudy
3:15 PM 73.4 °F 66.2 °F 78% 30.02 in 10.0 mi SSW 9.2 mph - N/A   Overcast
3:53 PM 73.0 °F 68.0 °F 84% 30.02 in 10.0 mi SW 10.4 mph - N/A   Overcast
4:11 PM 71.6 °F 68.0 °F 88% 30.04 in 10.0 mi SSW 10.4 mph - N/A   Overcast
4:53 PM 71.1 °F 68.0 °F 90% 30.04 in 10.0 mi SSW 6.9 mph - N/A   Scattered Clouds
5:53 PM 69.1 °F 69.1 °F 100% 30.04 in 10.0 mi SSE 3.5 mph - N/A   Partly Cloudy
6:26 PM 69.8 °F 68.0 °F 94% 30.05 in 10.0 mi Calm Calm - N/A   Partly Cloudy
6:41 PM 66.2 °F 66.2 °F 100% 30.05 in 8.0 mi Calm Calm - N/A   Mostly Cloudy
7:53 PM 68.0 °F 68.0 °F 100% 30.06 in 7.0 mi Calm Calm - N/A   Overcast
8:02 PM 68.0 °F 68.0 °F 100% 30.06 in 7.0 mi Calm Calm - N/A   Overcast
8:14 PM 66.2 °F 66.2 °F 100% 30.06 in 6.0 mi NW 6.9 mph - N/A   Overcast
8:21 PM 68.0 °F 68.0 °F 100% 30.06 in 7.0 mi NNW 4.6 mph - N/A   Overcast
8:53 PM 68.0 °F 66.9 °F 96% 30.06 in 10.0 mi Calm Calm - N/A   Overcast
9:18 PM 66.2 °F 66.2 °F 100% 30.07 in 10.0 mi North 3.5 mph - N/A   Scattered Clouds
9:37 PM 66.2 °F 66.2 °F 100% 30.06 in 10.0 mi Calm Calm - N/A   Mostly Cloudy
9:53 PM 66.0 °F 66.0 °F 100% 30.07 in 10.0 mi NNW 3.5 mph - N/A   Mostly Cloudy
10:00 PM 64.4 °F 64.4 °F 100% 30.07 in 10.0 mi NW 4.6 mph - N/A   Scattered Clouds
10:15 PM 66.2 °F 66.2 °F 100% 30.06 in 10.0 mi NW 3.5 mph - N/A   Mostly Cloudy
10:49 PM 64.4 °F 64.4 °F 100% 30.06 in 10.0 mi NNW 3.5 mph - N/A   Mostly Cloudy
10:53 PM 64.9 °F 64.9 °F 100% 30.06 in 10.0 mi NNW 3.5 mph - N/A   Mostly Cloudy
11:01 PM 64.4 °F 64.4 °F 100% 30.06 in 10.0 mi Calm Calm - N/A   Mostly Cloudy
11:19 PM 64.4 °F 64.4 °F 100% 30.06 in 10.0 mi North 4.6 mph - N/A   Mostly Cloudy
11:51 PM 64.4 °F 64.4 °F 100% 30.06 in 10.0 mi North 4.6 mph - N/A   Mostly Cloudy
11:53 PM 64.9 °F 64.9 °F 100% 30.06 in 10.0 mi North 4.6 mph - N/A   Mostly Cloudy